Weather History for KMEM - August, 2013

Change the Weather History Date:

Saturday, August 31, 2013

  Actual Average Record
Temperature  
Mean Temperature 87 °F 80 °F  
Max Temperature 97 °F 90 °F 103 °F (2000)
Min Temperature 77 °F 71 °F 48 °F (1946)
Degree Days  
Heating Degree Days 0 0  
Month to date heating degree days 0 0  
Since 1 June heating degree days 0 0  
Since 1 July heating degree days 0 0  
Cooling Degree Days 22 15  
Month to date cooling degree days 506 527  
Year to date cooling degree days 1726 1835  
Since 1 June cooling degree days 1441 1514  
Growing Degree Days 37 (Base 50)    
Moisture  
Dew Point 69 °F    
Average Humidity 57    
Maximum Humidity 74    
Minimum Humidity 40    
Precipitation  
Precipitation 0.00 in 0.08 in 2.33 in (1889)
Month to date precipitation 2.17 2.88  
Year to date precipitation 45.95 35.38  
Snow  
Snow 0.00 in 0.00 in - ()
Month to date snowfall 0.0 0.0  
Since 1 June snowfall 0.0 0.0  
Since 1 July snowfall 0.0 0.0  
Snow Depth 0.00 in    
Sea Level Pressure  
Sea Level Pressure 29.88 in    
Wind  
Wind Speed 6 mph (SW)    
Max Wind Speed 13 mph    
Max Gust Speed 25 mph    
Visibility 10 miles    
Events      
T = Trace of Precipitation, MM = Missing Value Source: NWS Daily Summary

Daily Weather History Graph

Daily Weather History Graph

Search for Another Location

Airport or City:

Trip Planner

Search our weather history database for the weather conditions in past years. The results will help you decide how hot, cold, wet, or windy it might be!

Date:

Astronomy

Aug. 31, 2013 Rise Set
Actual Time 6:32 AM CDT 7:27 PM CDT
Civil Twilight 6:06 AM CDT 7:53 PM CDT
Nautical Twilight 5:35 AM CDT 8:24 PM CDT
Astronomical Twilight 5:03 AM CDT 8:55 PM CDT
Moon 2:07 AM CDT (8/31) 4:20 PM CDT (8/31)
Length of Visible Light 13h 47m
Length of Day
12h 55m
Waning Crescent, 21% of the Moon is Illuminated
Aug 31
Waning Crescent
Sep 5
New
Sep 12
First Quarter
Sep 19
Full
Sep 26
Last Quarter

Hourly Weather History & Observations

Time (CDT) Temp. Heat Index Dew Point Humidity Pressure Visibility Wind Dir Wind Speed Gust Speed Precip Events Conditions
12:54 AM 82.0 °F 85.5 °F 69.1 °F 65% 29.89 in 10.0 mi SW 4.6 mph - N/A   Clear
1:54 AM 79.0 °F - 70.0 °F 74% 29.89 in 10.0 mi SSW 4.6 mph - N/A   Partly Cloudy
2:54 AM 80.1 °F 82.9 °F 69.1 °F 69% 29.89 in 10.0 mi Calm Calm - N/A   Partly Cloudy
3:54 AM 78.1 °F - 69.1 °F 74% 29.89 in 10.0 mi SSW 6.9 mph - N/A   Partly Cloudy
4:54 AM 78.1 °F - 69.1 °F 74% 29.89 in 9.0 mi SSW 5.8 mph - N/A   Clear
5:54 AM 79.0 °F - 68.0 °F 69% 29.90 in 9.0 mi SW 4.6 mph - N/A   Partly Cloudy
6:54 AM 78.1 °F - 68.0 °F 71% 29.91 in 10.0 mi WSW 3.5 mph - N/A   Partly Cloudy
7:54 AM 81.0 °F 84.1 °F 69.1 °F 67% 29.92 in 10.0 mi WSW 8.1 mph - N/A   Clear
8:54 AM 84.0 °F 87.8 °F 69.1 °F 61% 29.92 in 10.0 mi Variable 6.9 mph - N/A   Clear
9:54 AM 87.1 °F 91.3 °F 69.1 °F 55% 29.93 in 10.0 mi WSW 9.2 mph - N/A   Clear
10:54 AM 90.0 °F 95.4 °F 70.0 °F 52% 29.92 in 10.0 mi WSW 8.1 mph - N/A   Clear
11:54 AM 91.9 °F 97.4 °F 70.0 °F 48% 29.91 in 10.0 mi WSW 11.5 mph 18.4 mph N/A   Clear
12:54 PM 93.9 °F 100.3 °F 70.0 °F 46% 29.90 in 10.0 mi Variable 4.6 mph - N/A   Clear
1:54 PM 93.9 °F 100.3 °F 70.0 °F 46% 29.89 in 10.0 mi Variable 5.8 mph - N/A   Partly Cloudy
2:54 PM 95.0 °F 101.3 °F 70.0 °F 44% 29.86 in 10.0 mi West 5.8 mph - N/A   Partly Cloudy
3:54 PM 96.1 °F 101.0 °F 68.0 °F 40% 29.84 in 10.0 mi Variable 5.8 mph - N/A   Partly Cloudy
4:54 PM 95.0 °F 99.5 °F 68.0 °F 41% 29.83 in 10.0 mi Variable 4.6 mph - N/A   Partly Cloudy
5:54 PM 93.9 °F 98.6 °F 68.0 °F 43% 29.82 in 10.0 mi SSW 8.1 mph - N/A   Partly Cloudy
6:54 PM 91.0 °F 95.2 °F 68.0 °F 47% 29.82 in 10.0 mi SW 5.8 mph - N/A   Partly Cloudy
7:54 PM 88.0 °F 92.1 °F 69.1 °F 53% 29.83 in 10.0 mi SSW 5.8 mph - N/A   Partly Cloudy
8:54 PM 88.0 °F 91.4 °F 68.0 °F 51% 29.84 in 10.0 mi SW 6.9 mph - N/A   Clear
9:54 PM 84.0 °F 87.8 °F 69.1 °F 61% 29.85 in 10.0 mi SSW 5.8 mph - N/A   Clear
10:54 PM 84.0 °F 87.8 °F 69.1 °F 61% 29.83 in 10.0 mi SSW 5.8 mph - N/A   Clear
11:54 PM 82.0 °F 85.5 °F 69.1 °F 65% 29.83 in 10.0 mi SSW 6.9 mph - N/A   Clear